Flag for Canada Weather past 2 weeks in Sault Ste. Marie, Ontario, Canada

Now
41 °F

Fog.


Feels Like: 37 °F
Forecast: 40 / 60 °F
Wind: 6 mph from East

Location: Sault Ste Marie


UV Index: 3 (Moderate)

Visibility: 1 mi


Pressure: 29.92 "Hg

Humidity: 100%

Dew point: 41 °F

Location of Sault Ste. MarieLocation

Historic Weather in Sault Ste. Marie

°F

Sault Ste. Marie temperature yesterday

Maximum temperature yesterday: 39 °F (at 4:00 PM)
Minimum temperature yesterday: 32 °F (at 5:00 AM)
Average temperature yesterday: 36 °F

Past Weeks' High & Low Weather Summary

 TemperatureHumidityPressure
High52 °F (Apr 7, 3:00 PM)100% (Apr 11, 6:00 AM)30.55 "Hg (Apr 11, 6:00 AM)
Low3 °F (Apr 16, 7:00 AM)29% (Apr 9, 2:00 PM)29.45 "Hg (Apr 10, 7:00 AM)
Average34 °F78%30.02 "Hg
* Reported Apr 6 11:00 AM — Apr 21 11:00 AM, Sault Ste. Marie, Weather by CustomWeather, © 2014

Note: Actual official high and low records may vary slightly from our data, if they occured in-between our weather recording intervals... More about our weather records

Advertising

Historic Weather Conditions — Data for Previous 24 hours

 ConditionsComfort  
Time TempWeatherWind HumidityBarometerVisibility
11:00 AM
Apr 21
41 °FDrizzle. Fog.10 mph100%29.92 "Hg0 mi
10:00 AM39 °FFog.6 mph100%29.96 "Hg0 mi
9:00 AM39 °FFog.3 mph100%29.98 "Hg0 mi
8:00 AM37 °FFog.3 mph100%29.98 "Hg0 mi
7:00 AM37 °FFog.3 mph100%29.98 "Hg0 mi
6:00 AM37 °FFog.3 mph100%30.00 "Hg1 mi
5:00 AM36 °FTornado. Low clouds.3 mph100%30.01 "Hg1 mi
4:00 AM37 °FFog.6 mph100%30.01 "Hg1 mi
3:00 AM37 °FFog.5 mph100%30.03 "Hg0 mi
2:00 AM36 °FFog.6 mph100%30.04 "Hg1 mi
1:00 AM36 °FFog.7 mph100%30.05 "Hg1 mi
12:00 AM36 °FFog.6 mph100%30.07 "Hg1 mi
11:00 PM
Apr 20
36 °FFog.6 mph100%30.09 "Hg2 mi
10:00 PM37 °FFog.7 mph93%30.11 "Hg2 mi
9:00 PM37 °FFog.6 mph93%30.11 "Hg1 mi
8:00 PM37 °FFog.7 mph100%30.10 "Hg2 mi
7:00 PM37 °FFog.6 mph100%30.11 "Hg2 mi
6:00 PM37 °FFog.6 mph100%30.11 "Hg6 mi
5:00 PM39 °FFog.5 mph93%30.13 "Hg6 mi
4:00 PM39 °FFog.6 mph93%30.15 "Hg6 mi
3:00 PM37 °FDrizzle. Fog.6 mph100%30.16 "Hg2 mi
2:00 PM37 °FDrizzle. Fog.7 mph100%30.17 "Hg1 mi
1:00 PM37 °FLight rain. Fog.6 mph93%30.19 "Hg1 mi
12:00 PM36 °FLight rain. Fog.6 mph100%30.21 "Hg1 mi
Weather by CustomWeather, © 2014

See weather overview